Regional Weather Roundup
Issued by NWS

Home | Current Version | Previous Version | Text Only | Print | Product List | Glossary On
Versions: 1 2 3 4 5 6 7 8 9 10 11 12 13 14 15 16 17 18 19 20 21 22 23 24 25 26 27 28 29 30 31 32 33 34 35 36 37 38 39 40 41 42 43 44 45 46 47 48 49 50
000
ASUS44 KFWD 302301
RWRTX
NORTH TEXAS HOURLY WEATHER ROUNDUP
NATIONAL WEATHER SERVICE FORT WORTH TX
600 PM CDT SAT MAY 30 2015

NOTE: "FAIR" INDICATES FEW OR NO CLOUDS BELOW 12,000 FEET WITH NO
SIGNIFICANT WEATHER AND/OR OBSTRUCTIONS TO VISIBILITY.

TXZ118-119-310000-
DALLAS/FORT WORTH METROPLEX

CITY           SKY/WX    TMP DP  RH WIND       PRES   REMARKS
DFW AIRPORT    PTSUNNY   74  64  71 N12       30.04F
DALLAS LOVE    PTSUNNY   77  65  66 N15       30.04S
FTW MEACHAM    MOSUNNY   78  32  18 N10       30.05S
DAL-EXECUTIVE  MOSUNNY   77  65  66 NW15      30.03F
FTW-ALLIANCE   PTSUNNY   75  65  70 N10       30.06S
FTW-NAS-JRB    MOSUNNY   77  65  66 NW10      30.06F
FTW-SPINKS     PTSUNNY   77  64  65 NW9       30.06F
ARLINGTON      SUNNY     78  64  61 NW13      30.04S
GRAND PRAIRIE  MOSUNNY   75  66  73 N10       30.06S
ADDISON        PTSUNNY   73  64  73 NW13G20   30.05F
LANCASTER      MOSUNNY   79  65  62 N10       30.04F
$$

TXZ091>094-102>105-117-120-121-131>134-310000-
NORTH CENTRAL TEXAS

CITY           SKY/WX    TMP DP  RH WIND       PRES   REMARKS
SHRMAN/DENISON PTSUNNY   73  66  78 N8        30.08F
GAINESVILLE    PTSUNNY   73  62  68 N7        30.09F
BRIDGEPORT     SUNNY     76  65  68 N9        30.10F
DECATUR        SUNNY     72  60  65 N8        30.09S
DENTON         PTSUNNY   76  64  66 N10       30.06F
MCKINNEY       PTSUNNY   72  64  76 N13       30.05F
ROCKWALL       MOSUNNY   73  68  82 N12G17    30.03F
TERRELL        MOSUNNY   76  69  79 NW9       30.03S
WAXAHACHIE     SUNNY     76  67  72 N10       30.05R
CLEBURNE       MOSUNNY   77  68  73 N9G17     30.07S
$$

TXZ083>090-098>101-113>116-127>130-139>142-154-155-310000-
WESTERN NORTH TEXAS

CITY           SKY/WX    TMP DP  RH WIND       PRES   REMARKS
WICHITA FALLS  MOSUNNY   75  58  55 N7        30.10F
WF-KICKAPOO    MOSUNNY   76  59  53 N9        30.11F
ABILENE        CLOUDY    70  62  76 N10       30.14F
ABILENE-DYESS  CLOUDY    68  59  71 N9        30.12F
BRECKENRIDGE   PTSUNNY   74  61  63 N9        30.11S
MINERAL WELLS  PTSUNNY   76  63  64 N10       30.06F
STEPHENVILLE   PTSUNNY   78  62  57 N9        30.09F
COMANCHE       CLOUDY    78  63  61 NE7       30.08F
COLEMAN        CLOUDY    76  66  70 N10       30.10S
BRADY          SUNNY     77  61  57 NE8       30.08F
$$

TXZ143>147-156>162-174-175-310000-
CENTRAL TEXAS

CITY           SKY/WX    TMP DP  RH WIND       PRES   REMARKS
WACO           MOSUNNY   80  65  59 N12       30.02S
WACO-TSTC      PTSUNNY   81  64  57 N9        30.02R
WACO-MCGREGOR  PTSUNNY   81  64  57 NW10      30.03F THUNDER
CORSICANA      SUNNY     77  66  68 N14G22    30.03R
MEXIA          MOSUNNY   79  66  63 NW6       30.00S
HEARNE         CLOUDY    81  67  63 NW12      30.00S
TEMPLE         CLOUDY    81  63  54 N9        30.01F
KILLEEN        CLOUDY    80  62  55 N9        30.03F
KILLEEN-SKYLRK CLOUDY    81  63  54 N9        30.03F
FORT HOOD      CLOUDY    80  64  57 N9        30.02F
LAMPASAS       CLOUDY    81  66  60 N5        30.05F
$$

TXZ095>097-106>112-122>126-135>138-148>153-164>167-310000-
EAST TEXAS

CITY           SKY/WX    TMP DP  RH WIND       PRES   REMARKS
PARIS          CLOUDY    70  63  78 NW17      30.03F
GILMER         CLOUDY   N/A N/A N/A CALM      30.00F
MINEOLA        MOSUNNY   73  70  88 N7        30.02F FOG
TYLER          MOSUNNY   78  66  66 N5        30.00F
LONGVIEW       PTSUNNY   79  68  69 N3        29.99F
ATHENS         DRIZZLE   72  68  88 N9        30.00R
PALESTINE      MOSUNNY   81  67  61 NW3       30.01R
JACKSONVILLE   CLOUDY    79  67  67 N3        30.02R
HENDERSON      CLOUDY    78  67  67 MISG      30.00  THUNDER
NACOGDOCHES    MOSUNNY   82  66  57 SE6       29.97F
LUFKIN         PTSUNNY   86  68  54 E6        29.97F
$$

SUPPLEMENTAL OBSERVATIONS (CENTRAL)

CITY           SKY/WX    TMP DP  RH WIND       PRES   REMARKS
$$

SUPPLEMENTAL OBSERVATIONS (WEST)

CITY           SKY/WX    TMP DP  RH WIND       PRES   REMARKS
$$

SUPPLEMENTAL OBSERVATIONS (EAST)

CITY           SKY/WX    TMP DP  RH WIND       PRES   REMARKS
$$

SUPPLEMENTAL OBSERVATIONS ARE A COLLECTION OF AUTOMATED INSTRUMENTS
THAT ARE MAINTAINED BY A VARIETY OF FEDERAL AND STATE AGENCIES.
CERTAIN ELEMENTS...SUCH AS HUMIDITY VALUES AND SUSTAINED WIND
SPEEDS...MAY BE APPROXIMATED.



USA.gov is the U.S. government's official web portal to all federal, state and local government web resources and services.